Dewpoint
76 76 76 75 74 71 68 65 44 49 43 39 39 39 40 43 44 49 49 51 51 52 56 58 57 58 56 55 57 63 64 55 55 45 44 60 70 69 72 73 74 74 73 73 74 72 73 73 73 73 74 75 75 75 76 76 77 76 76 76 76 75 76 76 76 75 75 75 75 75 75 75 75 75 75 75 75 75 75 75 75 75 75 75 75 75 75 75 76 76 76 76 77 77 77 77 76
77 76 74 72 69 66 63 63 48 41 41 38 37 38 39 45 49 48 49 49 50 57 60 61 61 62 62 62 63 61 62 65 65 64 67 69 69 72 73 74 74 74 74 73 73 73 73 73 73 74 74 74 75 75 76 76 76 76 76 76 76 75 75 75 75 75 75 75 75 75 75 75 75 75 75 75 75 75 75 75 76 75 75 75 75 75 75 75 75 75 74 75 75 76 76 75 75
77 75 72 68 65 66 66 62 40 40 38 36 37 38 42 46 47 46 48 54 58 59 59 58 57 57 59 59 58 59 57 66 66 66 67 69 69 72 74 74 75 75 74 74 74 73 74 73 73 74 74 74 74 75 76 76 76 76 76 75 75 75 75 75 75 75 75 75 75 75 75 75 74 74 74 74 74 75 75 75 76 75 75 75 75 75 75 75 75 74 74 74 75 75 75 75 76
75 73 69 66 62 65 58 53 42 40 39 38 39 39 44 45 47 51 55 57 56 55 54 54 57 59 59 60 62 64 64 65 66 66 66 67 69 72 74 75 76 75 75 75 75 74 75 75 75 73 74 74 75 75 75 76 76 76 76 76 76 75 75 75 75 75 75 75 75 75 74 74 74 74 74 75 74 75 75 75 75 75 75 75 75 74 74 75 75 74 74 74 74 75 75 75 76
71 71 67 66 63 60 57 51 44 41 37 38 39 40 47 48 51 54 55 55 54 52 54 56 58 60 61 61 61 60 61 65 66 66 66 70 72 73 74 75 75 75 75 75 75 75 76 77 77 76 75 75 75 75 76 76 76 76 76 76 76 76 75 75 75 75 75 75 75 74 74 74 75 75 74 74 74 75 74 75 75 75 75 75 75 75 75 76 75 76 75 75 74 74 75 76 76
66 66 67 67 64 65 53 42 41 45 39 39 40 43 47 50 51 53 52 52 53 54 55 57 57 57 60 61 63 64 65 63 66 66 68 71 72 74 74 75 75 75 75 76 76 76 76 77 76 76 76 75 76 76 76 76 76 76 76 76 76 76 75 75 75 75 75 75 75 74 74 75 74 74 74 74 74 74 74 74 74 74 74 74 74 74 74 74 75 76 75 76 75 73 73 75 76
63 65 67 65 59 62 48 43 43 45 43 38 39 43 48 49 51 51 52 53 54 55 57 57 59 59 59 62 63 66 67 67 66 66 69 71 73 74 74 74 75 75 75 75 76 76 76 77 76 76 76 76 76 76 76 76 76 76 76 76 76 76 76 75 75 75 75 75 75 75 74 74 74 74 74 74 74 74 74 74 74 74 74 74 73 74 74 74 73 74 75 75 75 75 75 74 75
67 64 66 52 52 45 44 44 44 48 34 38 39 45 48 50 50 51 52 52 52 53 55 56 56 57 60 62 63 69 68 68 68 69 71 72 73 73 74 74 74 75 75 75 76 76 77 77 77 76 76 76 76 76 76 76 76 76 76 75 76 75 75 75 75 75 75 75 75 74 74 74 74 74 75 75 74 74 74 74 74 74 74 74 74 74 74 74 74 74 74 74 74 74 73 73 74
65 63 61 51 42 39 40 36 35 40 35 36 42 53 54 49 50 50 51 53 54 54 55 57 58 57 61 66 66 68 68 68 70 71 71 72 72 73 73 74 74 74 75 75 76 76 76 77 77 76 76 76 77 76 76 76 75 75 75 75 75 76 75 75 75 75 75 75 75 75 75 75 75 75 75 75 75 75 74 74 74 74 74 74 74 74 74 74 74 73 73 73 73 73 72 72 73
64 61 54 49 43 37 35 34 30 29 29 36 43 47 48 49 48 52 53 54 55 56 58 62 60 59 65 64 66 68 68 69 70 70 71 72 72 72 73 74 74 74 75 76 76 76 76 77 76 76 76 76 76 77 76 76 75 76 76 76 75 75 75 75 74 75 75 75 76 76 75 75 75 75 75 75 75 74 75 75 74 74 74 74 74 74 74 74 74 74 73 73 73 72 72 72 72
56 55 57 43 38 37 36 34 37 38 35 41 43 46 48 48 51 53 54 56 59 59 60 61 62 63 65 66 67 70 69 69 69 69 71 71 72 72 72 74 74 74 75 76 76 76 76 76 76 75 76 76 75 77 76 76 75 75 76 76 75 75 75 75 75 75 75 75 75 75 75 75 75 75 75 75 75 75 75 75 75 74 74 74 74 74 74 74 74 73 73 73 73 73 73 72 72
54 48 49 40 35 36 35 34 35 32 40 42 42 47 46 49 53 54 55 56 58 58 58 60 60 65 64 65 67 69 70 69 69 70 70 71 71 72 72 73 74 74 75 76 76 76 76 76 76 76 75 75 76 75 75 75 76 75 75 75 75 76 76 75 75 75 75 74 74 75 75 75 75 75 75 75 75 74 74 74 74 74 74 73 73 74 73 74 74 74 74 74 74 74 74 73 73
57 44 38 37 35 39 38 29 31 42 37 38 42 44 48 49 52 54 57 58 58 57 57 61 63 63 62 65 69 69 68 69 69 70 70 71 71 72 73 73 74 74 75 76 76 76 76 76 76 76 75 75 76 75 75 75 75 75 76 75 75 76 76 76 76 75 75 74 74 74 74 74 75 75 75 75 74 74 74 74 74 74 74 74 73 74 73 73 73 74 74 74 73 74 74 74 73
55 48 38 40 41 37 30 34 35 36 40 40 42 46 48 49 52 56 57 56 57 53 59 63 65 66 66 67 68 67 68 69 69 69 70 71 72 72 72 73 74 74 75 75 76 76 76 76 76 76 75 75 75 75 75 75 75 75 75 75 75 75 76 76 76 74 75 75 74 74 74 74 74 74 74 74 74 74 74 74 74 74 73 73 73 73 73 74 74 74 74 74 73 73 73 73 75
51 49 44 41 33 31 30 36 39 40 41 43 45 48 49 53 55 56 56 53 56 61 62 64 66 59 60 65 65 67 68 68 68 69 70 71 72 73 73 73 74 74 75 75 76 76 76 76 76 76 76 76 76 76 75 75 76 75 75 74 75 75 75 75 74 75 74 74 74 74 74 74 74 74 74 74 73 73 73 74 73 74 73 73 73 74 73 74 73 74 74 74 74 73 74 74 74
50 38 37 36 29 30 32 35 35 41 44 48 50 51 51 52 53 53 54 56 58 60 60 59 61 56 63 64 66 68 68 67 67 69 71 72 73 73 73 73 74 74 75 75 76 76 76 76 76 76 76 76 76 76 76 75 76 75 75 75 75 74 75 75 74 74 74 73 73 73 73 74 72 73 73 73 73 72 72 73 73 73 73 72 73 73 73 73 74 73 73 73 74 74 74 74 73
40 41 34 31 26 32 31 31 40 39 43 47 49 50 51 52 54 54 57 58 57 56 59 61 58 64 65 65 68 68 68 68 69 70 72 72 72 72 72 73 73 74 74 75 75 76 76 76 76 76 76 76 76 76 76 76 76 76 74 75 75 74 74 74 74 74 73 73 74 74 75 76 75 75 75 75 73 75 76 74 74 73 73 73 72 72 73 73 73 74 74 74 74 73 73 73 74
39 37 30 22 23 20 26 32 35 42 46 49 51 52 51 51 54 56 56 56 58 60 61 64 66 66 68 69 69 68 68 68 70 71 72 71 71 71 71 72 72 72 73 74 75 76 75 76 76 76 76 76 76 76 76 76 77 76 75 75 75 75 75 74 75 75 76 75 74 75 75 76 75 74 75 76 76 77 76 74 73 73 73 72 73 73 73 73 74 74 74 73 74 74 74 74 73
35 34 26 18 23 19 19 32 40 47 48 50 51 52 51 52 54 55 54 55 57 60 62 64 66 67 69 69 69 68 68 69 71 71 71 70 70 70 70 71 71 72 73 74 75 75 75 75 77 76 76 76 77 77 76 75 74 74 75 75 76 76 76 76 74 77 75 75 75 73 75 76 75 75 76 76 77 76 77 76 74 73 72 72 73 73 73 74 74 74 74 74 74 74 76 75 73
38 31 19 21 27 24 38 44 45 48 48 49 50 51 52 53 52 55 54 54 57 60 62 63 65 66 68 69 69 69 70 71 71 71 71 70 70 69 70 70 71 71 72 73 74 75 75 75 76 76 76 77 76 76 75 75 74 74 74 75 76 75 75 74 74 75 74 75 74 73 75 75 76 75 77 76 75 77 76 76 75 74 73 74 73 73 74 74 74 74 74 75 74 76 75 75 74
23 24 17 16 21 38 36 45 46 47 49 49 49 50 50 51 53 56 55 53 54 56 61 63 65 66 68 68 69 69 70 71 71 71 70 71 70 70 70 70 70 71 72 74 75 75 75 76 76 76 76 77 76 75 75 74 75 74 74 75 76 75 75 75 75 75 75 75 75 75 75 76 75 75 75 75 76 75 75 75 76 76 75 74 76 75 74 73 74 73 75 76 74 75 75 74 74
29 22 17 15 21 38 40 45 47 48 49 49 49 49 49 55 56 55 53 51 52 55 57 64 66 67 68 68 68 69 70 71 71 71 70 70 71 70 70 71 71 72 73 73 74 75 75 76 76 76 76 77 76 75 75 74 75 74 75 75 75 75 75 75 75 75 75 75 75 75 76 76 75 75 75 74 75 75 75 74 74 74 74 75 76 74 73 72 73 73 74 74 74 74 74 74 74
11 13 14 24 37 41 40 48 49 49 49 49 49 52 56 56 56 58 55 53 54 59 62 64 65 67 68 68 68 69 70 71 71 71 71 71 71 71 71 71 71 72 73 72 74 75 75 75 76 76 76 76 76 76 75 74 74 75 75 76 75 75 75 75 75 75 75 75 75 76 75 75 75 75 75 74 74 74 74 74 74 74 74 74 74 73 72 72 72 73 74 73 73 74 74 74 74
12 11 16 26 37 42 47 49 52 50 50 51 54 58 57 56 55 59 56 56 57 62 64 64 65 66 67 68 69 70 70 70 71 71 71 71 71 71 71 71 71 72 72 72 74 74 75 75 75 75 75 76 76 76 75 75 75 75 76 76 75 75 75 75 75 75 75 75 75 75 76 75 75 75 75 74 74 74 74 74 74 73 73 74 74 74 73 72 72 73 73 72 73 73 73 73 73
15 19 30 37 45 47 49 49 51 53 55 57 58 58 59 58 58 60 57 59 61 63 63 64 65 66 67 68 69 70 70 70 71 71 71 72 72 72 72 72 72 72 72 72 73 74 75 75 75 75 75 75 76 76 75 76 75 75 76 76 75 76 75 75 75 75 75 75 75 75 75 75 75 75 74 74 74 74 74 74 74 73 73 73 73 74 73 72 72 72 73 72 72 72 72 72 72
18 16 31 37 44 46 50 52 53 56 58 59 59 59 59 59 57 57 58 59 61 62 63 63 64 65 67 68 69 70 70 70 71 71 71 72 72 72 72 72 72 72 72 72 73 74 74 75 74 75 75 75 75 76 76 76 76 75 75 75 75 76 75 75 75 75 75 75 75 75 75 75 74 74 74 74 74 73 73 73 73 73 73 73 73 73 73 72 72 72 72 72 72 72 71 72 72
17 23 38 43 45 49 52 52 53 55 56 57 57 58 60 61 56 55 58 60 61 62 62 63 63 64 66 68 69 70 70 70 70 71 71 71 72 72 72 72 72 72 72 72 73 73 74 74 74 74 74 75 75 75 75 75 75 75 75 75 75 75 75 75 75 75 75 75 75 75 75 75 74 74 74 74 73 73 73 73 73 73 73 73 73 73 74 73 72 72 72 72 72 72 71 71 72
21 38 38 37 44 49 52 53 53 55 57 59 56 57 59 61 60 57 57 60 61 61 61 61 62 62 64 67 68 69 70 70 70 70 70 71 71 71 72 72 72 72 72 72 73 74 74 74 74 74 74 74 75 75 75 75 75 75 75 75 74 74 75 75 75 75 75 75 75 74 74 74 75 74 74 74 73 73 73 72 72 72 72 73 73 73 73 73 72 72 72 72 72 72 72 71 71
29 40 35 38 47 50 51 52 53 56 56 57 52 50 54 60 59 60 58 60 60 60 60 60 60 61 63 65 66 67 69 69 70 70 70 71 71 72 71 72 72 72 72 72 73 73 73 73 73 73 74 74 74 74 75 75 74 74 75 75 75 74 75 75 75 74 75 75 75 75 74 74 75 74 74 73 74 73 73 72 72 72 72 73 73 73 73 73 72 72 71 71 71 71 71 70 71
29 33 34 41 44 47 49 43 51 54 55 55 49 43 49 57 60 60 60 60 59 59 59 59 60 61 63 63 64 65 67 69 69 70 70 70 71 71 71 71 72 72 72 72 72 73 73 73 73 73 73 73 74 74 75 75 74 74 74 75 75 75 75 75 75 75 75 75 75 75 75 74 74 74 74 73 73 73 73 72 72 72 72 73 73 73 73 73 72 71 71 71 71 70 70 70 71
28 25 27 38 44 45 46 47 51 53 57 54 51 45 51 57 60 61 61 60 59 59 60 61 61 61 62 63 63 64 65 67 69 69 70 70 71 71 71 71 72 72 72 71 72 72 73 73 73 73 73 73 73 73 74 75 75 74 74 74 74 75 75 75 75 75 75 75 75 75 75 75 75 74 74 74 73 73 73 72 72 72 72 72 72 72 72 72 72 72 71 70 70 70 70 70 70
21 25 22 22 41 41 37 41 52 51 55 56 52 50 53 57 59 61 62 61 61 61 62 62 62 61 62 63 63 63 64 65 66 67 68 69 70 70 70 70 71 71 71 71 71 72 73 73 74 73 73 73 73 73 73 74 74 74 74 75 74 74 75 75 76 76 76 76 75 75 75 75 75 74 74 74 74 73 73 72 72 72 72 72 72 72 72 72 72 72 71 70 69 69 69 69 69
27 22 30 24 29 37 32 38 51 45 53 49 51 49 54 57 58 61 63 63 63 63 63 64 63 63 63 62 63 64 65 66 66 66 68 69 69 69 69 70 70 71 71 71 71 72 72 72 74 73 72 72 73 73 74 74 74 74 74 74 74 74 74 74 75 76 76 75 75 74 75 75 75 74 74 74 74 74 73 73 72 72 72 72 72 72 72 72 72 71 71 71 70 69 69 69 68
21 26 24 20 32 32 33 40 43 47 48 49 54 54 54 55 59 62 63 64 63 63 63 64 64 64 64 65 65 65 65 65 66 67 68 68 69 70 70 71 70 71 71 71 71 72 72 72 73 73 73 74 74 74 74 74 74 74 73 74 74 75 74 75 75 75 75 75 75 74 74 74 74 75 75 74 74 74 73 73 72 72 72 72 71 71 71 71 72 71 71 71 70 70 68 68 68
17 20 19 18 24 33 34 43 43 46 48 51 53 53 53 58 60 62 63 64 63 63 64 64 64 65 65 66 66 66 66 66 66 67 68 69 69 70 69 70 70 70 70 71 71 71 72 72 73 73 74 73 74 74 74 74 74 74 73 73 74 75 74 73 73 73 73 74 74 74 74 74 74 74 74 75 74 74 74 73 73 72 72 72 71 71 71 71 71 71 71 71 70 70 69 68 69
18 18 21 21 25 29 36 43 44 46 49 50 51 52 56 58 60 62 63 64 63 64 64 64 64 65 65 65 66 66 66 67 68 68 69 69 69 69 69 69 70 70 70 71 72 72 72 72 73 73 74 74 74 74 74 74 74 74 73 73 73 73 72 72 72 72 72 73 73 73 74 74 74 74 74 74 74 74 74 74 73 73 72 71 71 70 70 70 70 70 70 70 69 69 69 68 68
19 17 18 20 25 29 37 42 46 48 46 47 50 54 56 57 60 62 63 64 63 63 63 63 63 64 65 65 66 66 67 68 69 69 68 69 69 70 70 71 71 71 71 71 71 72 72 73 73 72 72 73 75 74 74 74 73 73 72 70 66 67 67 70 70 70 70 71 72 73 73 74 74 74 74 74 73 73 74 74 74 73 71 71 71 70 70 70 70 71 70 71 69 68 68 68 67
21 19 15 16 28 31 39 44 47 44 46 49 53 54 55 56 60 62 63 63 62 62 62 62 63 63 64 65 66 67 68 69 69 69 69 69 70 71 70 70 72 69 70 70 70 70 71 72 72 72 72 72 74 75 75 74 72 72 71 69 65 66 67 68 68 69 70 70 71 71 72 72 72 72 73 73 74 73 72 73 73 73 72 72 71 71 71 71 71 70 70 69 70 68 68 68 68
21 20 23 27 32 38 40 38 40 45 49 49 53 53 53 56 59 61 62 61 61 62 62 62 63 63 64 65 66 67 67 67 68 69 70 70 70 70 70 70 69 69 68 68 69 69 70 71 72 73 73 74 74 75 74 73 72 71 70 70 67 67 68 68 69 68 69 70 71 71 72 72 72 71 72 72 72 72 73 73 73 73 73 72 69 69 71 71 70 70 70 69 68 69 68 68 68
23 26 28 29 35 39 39 39 46 48 48 50 52 52 51 54 56 57 59 59 60 62 62 63 63 63 63 65 66 66 66 67 68 68 69 70 70 70 70 70 69 69 70 69 69 69 69 70 70 72 73 74 74 73 74 72 71 71 71 71 71 69 69 69 69 69 70 71 72 72 72 71 71 71 71 71 72 72 72 73 73 72 71 67 68 70 70 69 70 70 69 69 69 67 67 67 68
24 27 28 29 35 36 40 36 46 49 50 51 51 49 50 51 55 55 58 61 61 62 62 61 62 63 63 64 65 66 66 66 66 66 66 66 67 68 69 70 70 70 69 68 68 69 70 70 71 73 74 75 73 74 74 73 73 73 73 73 73 71 71 69 68 69 70 71 73 73 72 72 71 71 71 71 72 72 72 72 71 71 70 68 68 67 68 68 69 68 69 70 69 66 66 67 68
15 24 27 33 31 38 40 43 44 45 46 50 49 42 43 48 51 54 57 59 60 61 60 60 61 62 63 64 65 65 66 66 65 64 64 65 66 65 65 66 68 69 68 68 68 68 69 70 72 72 73 72 72 72 72 73 73 72 71 71 69 68 68 68 68 68 69 70 70 72 73 72 72 72 72 72 71 71 71 71 70 70 69 68 68 68 68 68 67 68 69 70 69 68 67 67 66
15 18 27 26 34 40 42 42 41 41 42 47 47 38 36 43 49 52 56 58 59 60 60 61 61 62 62 63 64 65 66 65 64 63 63 62 61 61 61 63 65 65 65 65 66 67 68 70 70 71 70 70 71 71 71 72 70 71 71 70 69 68 68 68 69 70 70 70 70 70 71 72 71 71 70 70 69 70 71 71 71 70 70 69 69 69 69 68 68 68 70 69 68 68 68 66 65
12 18 20 33 39 39 40 39 39 41 46 41 42 43 40 40 46 51 57 58 58 58 60 60 61 61 62 62 63 64 65 64 63 62 62 62 60 59 60 61 62 63 63 64 65 66 66 67 67 68 69 69 69 69 70 71 70 69 69 68 69 68 68 68 69 70 70 70 69 69 70 70 69 69 69 68 68 68 69 70 70 70 69 69 70 70 70 70 69 69 70 69 68 69 67 65 65
13 16 28 36 38 38 39 37 33 33 42 41 42 43 36 38 43 52 58 56 56 58 59 60 60 61 62 62 63 64 65 64 62 61 62 61 59 58 59 60 62 64 64 64 64 65 66 67 66 66 66 67 67 69 69 69 70 69 68 68 67 68 69 69 69 70 69 70 69 69 68 69 70 69 69 69 68 68 69 70 70 70 69 69 69 68 69 70 69 69 69 69 69 66 67 67 67
18 24 29 29 28 32 34 31 34 36 34 36 41 40 35 33 38 53 55 54 55 57 59 59 60 61 61 61 62 63 64 63 62 62 62 61 60 59 61 62 62 63 64 67 65 65 65 65 65 64 64 65 66 66 67 68 68 69 67 66 66 67 67 67 68 68 68 68 68 68 68 68 68 68 69 69 69 69 69 69 71 71 69 68 68 68 69 69 67 67 68 69 68 67 67 66 67
22 23 21 24 29 33 39 34 30 30 25 27 38 40 36 31 39 52 53 55 55 56 58 59 60 61 61 61 62 63 63 62 61 61 61 61 60 61 62 62 63 64 65 65 64 64 64 63 63 63 64 64 65 66 67 68 68 68 67 67 66 66 67 67 67 67 67 67 67 67 67 67 68 68 68 68 69 69 69 69 70 69 69 69 69 68 67 68 68 67 67 68 67 67 67 67 67
19 20 23 20 23 29 26 30 31 20 18 28 29 39 37 30 33 45 55 54 56 56 57 58 59 60 60 60 61 62 62 61 61 60 60 60 60 61 62 61 62 63 64 64 64 64 65 64 62 62 63 63 64 66 67 67 67 66 67 67 66 66 67 67 66 66 66 66 66 66 67 67 67 67 68 67 67 67 68 68 69 69 68 68 68 68 68 67 68 68 68 68 66 67 67 68 68
22 23 22 18 17 20 16 26 17 15 17 28 33 36 37 35 34 41 49 54 55 57 57 58 59 59 60 60 60 61 61 60 60 60 59 59 59 60 60 60 62 62 63 63 64 64 64 63 62 61 62 62 63 64 65 65 66 66 66 66 66 67 67 67 66 66 66 66 66 65 66 66 66 66 66 66 67 67 67 67 67 68 67 68 70 70 69 68 67 67 67 68 69 69 69 69 69
15 17 25 19 15 17 12 23 23 19 24 25 29 36 34 38 38 42 46 49 53 56 58 58 59 59 60 60 60 60 60 59 59 59 59 59 59 60 60 60 61 61 62 63 64 65 64 63 62 61 61 62 63 63 64 64 65 66 66 66 66 66 66 66 66 66 66 65 65 65 65 65 65 65 66 66 66 67 67 67 67 67 67 67 68 68 68 69 69 69 68 69 69 71 71 70 71
20 27 17 18 21 18 12 20 13 14 21 22 29 31 29 31 35 48 50 51 52 55 58 59 59 60 60 59 59 59 59 59 59 59 59 59 59 59 58 60 61 61 61 62 63 63 63 62 62 62 61 62 62 63 63 63 64 65 66 66 66 66 66 66 66 66 66 66 65 65 65 65 65 65 66 66 67 67 67 68 68 68 68 68 68 69 69 69 69 69 69 69 69 69 70 69 70
25 22 20 17 20 30 13 24 23 24 19 21 33 27 35 37 45 53 52 53 52 55 57 59 59 58 58 57 58 58 58 58 59 59 58 58 59 58 58 60 61 61 62 62 62 63 63 62 62 61 61 62 62 65 62 62 64 65 65 65 66 66 67 67 66 66 66 66 65 65 65 65 66 66 66 67 67 67 67 68 68 68 68 68 68 68 68 68 68 68 68 68 68 69 69 68 69
25 21 20 22 28 33 36 40 33 30 25 22 33 37 42 44 42 49 52 53 54 55 56 57 57 57 57 57 57 57 58 58 58 58 58 58 58 58 59 60 61 61 61 61 62 63 62 63 63 61 61 61 61 65 62 62 63 64 65 64 65 66 65 65 65 65 65 66 66 66 65 66 66 66 66 67 67 67 68 67 68 68 68 68 68 68 68 67 67 67 67 67 67 67 68 68 68
20 21 21 33 35 30 25 17 23 24 17 22 36 37 40 31 28 46 50 51 52 53 55 56 56 56 56 56 57 57 57 57 58 58 58 58 58 59 59 60 61 61 61 61 62 63 62 62 62 60 63 61 61 61 62 62 63 64 64 64 65 65 65 65 65 64 65 65 65 64 65 64 65 65 66 66 67 67 67 67 67 67 67 67 67 67 67 67 67 67 67 67 67 67 67 68 68
20 18 25 24 21 18 26 23 16 14 14 19 22 32 41 38 35 44 46 49 51 52 53 54 54 55 55 56 56 56 57 57 57 57 57 57 57 58 58 59 60 61 63 61 62 62 62 61 62 60 60 61 61 61 62 63 63 63 64 65 64 64 64 64 64 64 64 64 63 64 64 64 64 65 66 66 66 66 66 66 66 66 66 66 66 66 67 66 66 66 66 66 67 67 67 67 67
22 20 18 30 27 28 22 22 26 21 16 18 16 35 28 42 42 44 44 49 51 51 52 53 54 55 55 56 56 56 56 56 56 56 56 56 56 57 58 58 59 60 61 62 62 61 60 61 62 63 63 61 60 60 62 63 62 63 63 63 63 63 64 64 64 63 63 63 63 63 63 64 64 65 65 65 65 65 66 65 66 66 66 66 66 66 66 66 66 66 66 66 66 67 67 66 67
21 21 23 24 29 30 23 28 23 20 22 19 22 19 26 34 44 46 45 48 51 51 52 53 54 54 55 55 55 55 56 56 56 56 56 56 55 56 58 59 60 60 62 63 61 60 60 60 61 61 61 59 59 60 61 61 63 63 63 62 62 62 62 63 63 63 63 63 63 63 63 63 64 64 65 65 65 65 65 65 65 66 66 65 66 65 66 66 65 65 66 66 66 66 66 66 67
20 18 18 21 23 24 21 23 27 28 21 18 19 18 25 31 47 48 46 49 51 52 52 52 53 54 55 55 55 55 55 56 56 55 55 54 55 56 58 59 60 60 61 62 61 61 60 60 60 60 59 59 58 60 61 61 62 63 62 62 61 62 62 62 62 62 63 62 62 62 62 63 63 64 65 65 65 65 65 65 65 66 66 66 65 65 65 65 65 64 64 65 65 66 66 66 66